Location: Unspecified
(43.4354°N, 0.0000°E)
Time: 15:19:14
(UTC+00:00)

SR - Pass Details

Date: 22 June 2019
Orbit: 578 x 878 km, 66.7° (Epoch: 21 August)

Event Time Altitude Azimuth Distance (km) Brightness Sun altitude
Exits shadow 03:09:03 - 186° (S) 1,984 ? -10.5°
Reaches altitude 10° 03:09:18 10° 185° (S) 1,886 ? -10.5°
Maximum altitude 03:13:15 41° 115° (ESE) 844 ? -10.0°
Drops below altitude 10° 03:17:16 10° 45° (NE) 1,921 ? -9.5°
Sets 03:19:38 0° 38° (NE) 2,852 ? -9.2°
